Location: Newark
(45.0333°N, 18.2865°E)
Time: 20:33:32
(UTC+00:00)

N. Korean satellite - Pass Details

Date: 21 September 2021
Orbit: 450 x 495 km, 97.3° (Epoch: 25 October)

Event Time Altitude Azimuth Distance (km) Brightness Sun altitude
Rises 03:49:27 0° 17° (NNE) 2,511 10.6 -8.4°
Reaches altitude 10° 03:51:33 10° 23° (NNE) 1,638 9.7 -8.1°
Maximum altitude 03:54:58 50° 100° (E) 615 7.6 -7.5°
Drops below altitude 10° 03:58:26 10° 176° (S) 1,649 9.2 -6.9°
Sets 04:00:32 0° 182° (S) 2,531 10.1 -6.5°
